SCP
0 0 0 0 0 0 0 0 0 0 0 0 0 0 0 0 0 0 0 0 0 0 0 0 0 0 0 0 0 0 0 0 0 0 0 0 0 0 0 0 0 0 0 0 0 0 -0 -0 -0
0 0 0 0 0 0 0 0 0 0 0 0 0 0 0 0 0 0 0 0 0 0 0 0 0 0 0 0 0 0 0 0 0 0 0 0 0 0 0 0 0 0 0 0 0 0 0 -0 -0
0 0 0 0 0 0 0 0 0 0 0 0 0 0 0 0 0 0 0 0 0 0 0 0 0 0 0 0 0 0 0 0 0 0 0 0 0 0 0 0 0 0 0 0 0 0 0 0 -0
0 0 0 0 0 0 0 0 0 0 0 0 0 0 0 0 0 0 0 0 0 0 0 0 0 0 0 0 0 0 0 0 0 0 0 0 0 0 0 0 0 0 0 0 0 0 0 0 0
0 0 0 0 0 0 0 0 0 1 1 1 1 0 0 0 0 0 0 0 0 0 0 0 0 0 0 0 0 0 0 0 0 0 0 0 0 0 0 0 0 0 0 0 0 0 0 0 0
0 0 0 0 0 0 0 0 1 1 1 1 1 1 0 0 0 0 0 0 0 0 0 0 0 0 1 1 1 0 0 0 0 0 0 0 0 0 0 0 0 0 0 0 0 0 0 0 0
0 0 0 0 0 0 0 0 1 1 1 1 1 1 0 0 0 0 0 0 0 0 0 0 0 0 0 0 1 1 0 0 0 0 0 0 0 0 0 0 0 0 0 0 0 0 0 0 0
0 0 0 0 0 0 0 0 0 1 1 0 0 0 0 0 1 1 0 0 0 0 0 0 0 0 0 0 0 0 0 0 0 0 0 0 0 0 0 0 0 0 0 0 0 0 0 0 0
0 0 0 0 0 0 0 0 0 0 0 0 0 0 1 1 1 1 1 0 0 0 0 0 0 0 0 0 0 0 0 0 0 0 0 0 0 0 0 0 0 0 0 0 0 0 0 0 0
0 0 0 0 0 0 0 0 0 0 0 0 0 1 1 1 1 1 1 0 0 0 0 0 0 0 0 0 0 0 0 0 0 0 0 0 0 0 0 0 0 0 0 0 0 0 0 0 0
0 0 0 0 0 0 0 0 0 0 0 0 1 1 1 1 1 1 1 1 0 0 0 0 0 0 0 0 0 0 0 0 0 0 0 0 0 0 0 0 0 0 0 0 0 0 0 0 0
0 0 0 0 0 0 0 0 0 0 0 0 0 1 1 1 1 1 1 1 1 1 0 0 0 0 0 0 0 0 0 0 0 0 0 0 0 0 0 0 0 0 0 0 0 0 0 0 0
0 0 0 0 0 0 0 0 0 0 0 0 0 1 1 1 1 1 1 1 1 1 1 0 0 0 0 0 0 0 0 0 0 0 0 0 0 0 0 0 0 0 0 0 0 0 0 0 0
0 0 0 0 0 0 0 0 0 0 0 0 0 0 1 1 1 1 1 1 1 1 1 0 0 0 0 0 0 0 0 0 0 0 0 0 0 0 0 0 0 0 0 0 0 0 0 0 0
0 0 0 0 0 0 0 0 0 0 0 0 0 0 1 1 1 1 1 1 1 1 0 0 0 0 0 0 0 0 0 0 0 0 0 0 0 0 0 0 0 0 0 0 0 0 0 0 0
0 0 0 0 0 0 0 0 0 0 0 0 0 0 0 1 1 1 1 1 1 0 0 0 0 0 0 0 0 0 0 0 0 0 0 0 0 0 0 0 0 0 0 0 0 0 0 0 0
0 0 0 0 0 0 0 0 0 0 0 0 0 0 0 1 1 1 1 1 0 0 0 0 0 0 0 0 0 0 0 0 0 0 0 0 0 0 0 0 0 0 0 0 0 0 0 0 0
0 0 0 0 0 0 0 0 0 0 0 0 0 0 0 1 1 1 1 0 0 0 0 0 0 0 0 0 0 0 0 0 0 -0 0 0 0 0 0 0 0 0 0 0 0 0 0 0 0
0 0 0 0 0 0 0 0 0 0 0 0 0 0 0 0 0 0 0 0 0 0 0 0 0 0 0 0 0 0 0 0 0 0 -0 0 0 0 0 0 0 0 0 0 0 0 0 0 0
0 0 0 0 0 0 0 0 0 0 0 0 0 0 0 0 0 0 0 0 0 0 0 0 0 0 0 0 0 0 0 0 0 0 0 0 0 0 0 0 0 0 0 0 0 0 0 0 0
0 0 0 0 0 0 0 0 0 0 0 0 0 0 0 0 0 0 0 0 0 0 0 0 0 0 0 0 0 0 0 0 0 0 0 0 0 0 0 0 0 0 0 0 0 0 0 0 0
0 0 0 0 0 0 0 0 0 0 0 0 0 0 0 0 0 0 0 0 0 0 0 0 0 0 0 0 0 0 0 0 0 0 0 0 0 0 0 0 0 0 0 0 0 0 0 0 0
0 0 0 0 0 0 0 0 0 0 0 0 0 0 0 0 0 0 0 0 0 0 0 0 0 0 0 0 0 0 0 0 0 0 0 0 0 0 0 0 0 0 0 0 0 0 0 0 0
0 0 0 0 0 0 0 0 0 0 0 0 0 0 0 0 0 0 0 0 0 0 0 0 0 0 0 0 0 0 0 0 0 0 0 0 0 0 0 0 0 0 0 0 0 0 0 0 0
0 0 0 0 0 0 0 0 0 0 0 0 0 0 0 0 0 0 0 0 0 0 0 0 0 0 0 0 0 0 0 0 0 0 0 0 0 0 0 0 0 0 0 0 0 0 0 0 0
0 0 0 0 0 0 0 0 0 0 0 0 0 0 0 0 0 0 0 0 0 0 0 0 0 0 0 0 0 0 0 0 0 0 0 0 0 0 0 0 0 0 0 0 0 0 0 0 0
0 0 0 0 0 0 0 0 0 0 0 0 0 0 0 0 0 0 0 0 0 0 0 0 0 0 0 0 0 0 0 0 0 0 0 0 0 0 0 0 0 0 0 0 0 0 0 0 0
0 0 0 0 0 0 0 0 0 0 0 0 0 0 0 0 0 0 0 0 0 0 0 0 0 0 0 0 0 0 0 0 0 0 0 0 0 0 0 0 0 0 0 0 0 0 0 0 0
0 0 0 0 0 0 0 0 0 0 0 0 0 0 0 0 0 0 0 0 0 0 0 0 0 0 0 0 0 0 0 0 0 0 0 0 0 0 0 0 0 0 0 0 0 0 0 0 0
0 0 0 0 0 0 0 0 0 0 0 0 0 0 0 0 0 0 0 0 0 0 0 0 0 0 0 0 0 0 0 0 0 0 0 0 0 0 0 0 0 0 0 0 0 0 0 0 0
Wind_Speed
9 5 2 0 1 2 1 3 2 3 3 3 3 6 5 3 5 6 6 15 18 14 11 13 15 15 15 15 15 15 15 15 15 14 14 14 14 13 12 12 11 11 10 10 9 9 9 8 8
6 5 2 1 1 0 3 3 3 3 0 2 4 5 5 8 9 11 9 15 17 14 9 12 16 15 15 15 15 15 15 15 15 14 14 13 13 12 12 11 10 10 10 9 9 8 8 7 7
6 5 2 1 1 3 4 4 6 2 7 5 4 3 5 7 9 7 11 17 14 12 9 12 17 17 16 15 14 14 15 15 14 14 13 13 12 12 11 10 9 9 9 8 8 8 7 6 6
3 2 1 0 5 6 6 6 5 5 6 7 2 4 5 4 6 12 18 16 15 11 8 12 17 17 17 16 15 15 15 15 14 13 13 12 11 11 10 9 8 8 8 8 7 7 6 6 4
2 3 0 2 5 5 4 5 5 7 5 5 6 6 5 6 18 19 17 16 15 11 8 11 17 17 17 16 16 15 15 14 14 13 12 11 10 9 9 8 8 8 7 7 7 7 6 5 4
2 2 1 3 5 5 3 4 10 15 9 7 7 5 4 7 16 16 16 14 14 13 9 10 16 17 17 16 15 15 14 13 12 11 11 10 9 8 8 7 7 7 7 7 6 7 7 6 4
2 1 2 4 4 5 5 8 10 12 11 6 4 3 2 4 7 10 13 13 12 12 10 7 8 11 15 15 14 14 13 12 10 9 8 8 7 7 7 7 7 7 7 7 7 7 7 7 6
4 2 3 4 4 3 3 7 9 10 8 6 4 5 4 4 7 10 12 12 11 9 9 8 7 6 6 7 12 12 11 10 8 7 6 5 4 4 5 6 7 8 8 8 8 8 8 8 7
2 3 3 4 2 2 3 7 5 5 7 5 5 7 7 5 10 12 11 10 9 9 7 7 7 6 5 5 8 8 8 7 5 3 3 2 1 0 2 5 8 9 9 9 9 9 8 8 7
4 3 7 5 2 1 5 8 7 7 6 4 4 5 6 7 10 13 13 12 10 9 7 6 7 6 5 5 4 3 3 3 3 2 2 2 1 1 2 2 4 7 7 8 8 8 7 6 3
5 6 6 2 1 5 7 7 6 9 4 7 10 11 10 9 6 11 13 12 10 9 8 6 6 6 5 4 4 2 2 3 3 4 3 3 3 2 3 1 2 2 2 2 3 3 3 3 3
4 4 1 2 5 7 7 5 6 4 6 9 10 10 9 10 8 9 13 13 10 10 8 7 7 7 6 5 4 4 3 3 3 3 4 3 3 3 3 2 2 1 1 1 1 1 3 3 3
1 1 2 5 9 9 11 8 7 3 3 5 7 7 5 5 5 6 10 12 12 11 8 6 7 7 6 5 4 5 4 3 4 3 4 5 3 3 3 3 2 2 1 0 1 1 2 2 2
2 1 3 6 8 6 10 6 5 2 5 4 3 4 4 4 6 7 10 11 11 11 8 6 7 7 7 5 5 4 4 4 4 3 4 5 4 3 4 4 3 3 2 1 0 1 1 1 1
2 3 4 3 4 4 7 6 3 4 6 4 4 3 4 5 7 8 10 11 11 10 8 7 7 6 7 7 6 4 4 4 4 3 4 4 4 4 3 3 4 3 3 3 2 2 1 1 1
4 3 3 3 2 3 7 3 3 4 7 6 6 5 5 3 5 7 9 9 9 9 8 6 7 7 6 5 5 4 4 4 3 3 3 4 4 4 4 4 4 4 4 3 3 3 2 2 2
3 2 2 3 1 3 5 3 5 6 7 7 6 6 7 5 5 6 7 8 8 8 7 6 6 6 6 5 4 4 4 4 3 3 3 3 4 5 4 3 3 4 4 4 3 3 2 2 3
5 2 2 2 1 3 3 2 4 5 6 6 5 7 8 9 7 7 8 8 7 7 7 7 6 6 5 4 4 3 3 3 2 3 3 4 3 4 4 3 4 5 4 4 3 3 3 2 2
6 3 2 2 2 2 3 3 4 4 5 6 5 6 7 8 7 7 8 9 8 7 7 6 6 5 4 3 3 3 2 2 2 2 3 4 3 4 4 3 3 4 4 4 4 3 4 3 3
4 2 1 0 1 3 1 1 3 5 5 7 8 9 8 7 7 8 8 9 8 8 7 7 7 6 5 3 3 2 3 2 2 2 3 3 4 4 4 4 3 3 3 5 5 4 3 3 4
0 3 5 4 2 4 2 2 2 2 3 5 7 7 8 10 11 10 10 9 9 9 9 8 7 6 6 5 3 2 3 2 2 1 1 2 3 4 4 4 3 3 3 3 3 3 3 2 3
1 4 8 7 5 1 1 2 4 2 2 5 7 8 9 10 9 9 11 10 11 11 9 8 8 7 6 5 5 4 3 2 3 2 2 2 3 3 4 4 4 3 2 2 2 2 2 2 2
3 3 5 5 5 4 4 1 7 0 3 6 8 10 10 11 12 12 12 13 12 12 10 9 8 7 7 6 7 6 4 3 2 2 2 2 1 2 4 5 4 3 2 2 1 1 2 1 1
8 5 6 5 5 4 2 0 6 4 6 6 8 10 10 12 12 12 11 11 11 11 9 9 9 8 7 7 7 7 7 5 4 3 2 1 1 1 4 5 4 3 2 2 1 0 1 0 0
5 5 4 6 6 2 3 2 9 8 7 9 11 11 11 11 12 12 11 11 12 12 11 10 11 9 8 8 7 7 7 7 6 4 3 2 1 2 4 4 4 3 3 3 2 1 1 1 1
3 7 5 3 3 2 2 4 9 8 6 8 10 10 11 12 12 14 14 13 13 14 13 12 12 9 9 8 7 7 7 5 4 4 4 4 3 3 4 5 5 4 4 3 3 2 2 2 2
1 2 5 7 3 1 4 6 9 4 2 6 8 10 12 14 14 15 14 13 13 13 13 14 13 10 9 9 7 7 7 6 6 5 4 3 3 3 5 5 5 5 5 4 4 3 3 3 3
4 3 5 5 5 2 3 5 6 5 5 6 7 10 13 13 14 14 13 13 12 12 11 11 12 11 9 9 8 7 7 7 6 5 5 5 4 4 5 5 5 5 5 5 4 4 4 4 4
2 2 3 3 6 6 4 8 9 11 10 9 11 12 14 14 15 14 13 12 11 10 10 10 10 9 8 9 8 7 7 7 6 6 6 6 5 5 5 6 5 5 5 5 5 5 5 5 5
2 4 5 3 2 5 5 9 7 10 11 10 11 12 12 13 13 13 12 10 10 10 11 11 11 10 10 9 8 8 7 7 6 6 6 6 6 6 6 6 6 6 6 5 6 6 6 6 6
Wind_Direction
171 162 167 82 42 40 258 233 221 272 293 296 156 137 127 93 129 139 121 133 132 133 133 130 128 127 128 130 130 129 128 128 128 128 127 127 126 126 125 124 123 120 117 114 110 106 103 101 98
157 170 168 47 97 98 255 227 226 267 11 34 55 80 79 66 81 105 114 132 131 129 128 129 126 125 126 128 128 129 129 130 130 130 130 131 132 132 131 130 130 128 125 123 119 115 111 108 102
181 186 141 126 219 205 226 222 216 93 40 12 358 35 64 100 109 110 131 134 127 123 124 130 124 122 122 123 123 125 127 129 130 130 131 133 135 136 136 136 136 135 134 133 129 125 122 118 110
170 121 59 121 254 250 236 230 209 136 53 18 38 37 29 94 108 126 135 133 124 121 122 129 124 122 121 122 123 124 126 128 130 131 134 136 137 138 140 141 141 142 142 140 139 139 136 132 125
102 103 74 285 261 260 253 222 156 104 87 49 43 53 25 54 114 128 134 133 128 125 124 127 126 124 123 124 124 126 127 129 132 134 136 139 140 142 145 148 149 151 151 152 152 153 154 152 151
69 96 48 293 289 304 5 102 105 92 97 79 68 41 14 103 122 135 135 133 132 131 128 129 130 129 128 128 128 129 131 133 135 137 140 143 146 150 155 161 163 166 165 164 168 168 169 173 182
146 108 256 284 308 344 30 77 88 100 91 71 89 45 12 111 122 133 131 130 132 132 130 129 133 132 133 134 134 135 136 138 140 143 146 151 156 163 171 177 180 180 179 179 183 186 186 190 198
168 85 322 310 318 336 60 86 90 97 108 140 125 138 190 161 136 131 131 129 130 133 135 134 130 128 129 135 139 140 140 140 142 146 149 152 162 180 201 200 198 198 196 195 196 201 201 200 203
141 71 279 267 270 265 116 107 97 100 130 158 180 178 164 144 136 132 131 127 134 138 140 138 135 133 132 137 141 138 136 132 129 135 133 121 89 274 242 227 215 213 209 207 206 209 210 209 212
131 169 239 233 232 146 109 120 136 129 119 129 151 142 122 129 142 143 144 143 143 148 149 144 144 145 145 142 121 112 103 89 82 68 69 59 38 4 352 283 238 226 221 219 218 217 216 211 209
179 205 239 290 57 100 102 111 132 135 144 172 162 158 153 141 148 147 146 142 144 145 136 126 135 140 138 123 121 103 91 86 80 71 72 66 51 26 19 8 333 301 255 232 235 226 215 200 195
212 244 187 70 56 78 101 111 109 145 183 173 160 158 155 149 149 154 142 136 133 123 122 121 122 121 119 116 112 109 104 99 91 70 70 69 53 36 19 10 351 347 331 246 232 223 220 210 206
341 302 87 92 83 91 99 103 110 98 138 142 145 139 142 148 145 139 137 132 126 121 123 125 121 120 119 113 117 113 114 111 99 76 63 71 62 40 21 10 9 2 353 233 218 224 221 218 219
285 74 81 97 98 93 107 109 99 137 143 140 149 148 150 151 144 139 135 131 130 129 130 129 124 123 118 116 116 119 118 114 100 89 79 74 69 50 32 22 16 7 360 343 243 245 236 241 244
333 17 13 46 89 120 107 77 111 170 146 158 195 185 166 146 142 145 146 141 138 137 136 135 129 119 116 118 123 123 124 118 112 106 88 81 76 60 48 30 14 1 3 13 25 23 36 25 342
2 21 340 321 60 117 102 115 168 170 150 164 186 169 153 166 149 146 148 139 138 136 134 138 130 122 119 123 125 124 124 123 126 116 96 87 81 70 57 39 17 7 23 27 40 41 43 30 13
355 310 283 311 2 101 104 158 175 169 156 159 174 168 160 175 159 151 150 145 143 141 138 132 131 133 129 126 123 120 120 126 137 125 111 100 87 75 69 51 26 25 32 24 24 40 44 25 354
256 240 243 248 272 109 119 173 167 162 163 168 179 172 165 167 166 162 156 150 142 139 138 138 138 138 128 114 102 93 97 119 138 140 137 121 99 84 78 63 38 35 35 21 18 26 28 27 344
217 187 217 233 207 114 144 178 185 167 168 176 180 179 171 166 163 159 160 155 146 141 143 151 148 152 134 121 122 123 137 152 156 172 154 138 119 100 89 73 52 44 42 27 19 23 22 8 2
200 148 99 23 119 103 105 249 214 182 185 187 184 186 180 172 166 165 167 162 159 158 160 163 162 161 155 152 157 159 152 160 166 167 159 159 141 133 118 102 82 60 48 33 33 40 35 3 18
156 161 164 172 100 65 84 344 266 216 181 190 191 195 186 181 174 172 172 174 169 170 176 176 178 173 171 161 133 98 76 68 76 112 181 197 169 152 134 125 110 83 73 53 47 55 65 23 355
223 180 152 146 121 13 56 304 291 208 191 198 196 193 189 184 178 180 178 180 182 185 184 181 182 181 178 162 148 146 146 156 181 181 196 213 194 171 155 140 127 109 96 79 50 73 75 71 13
157 114 104 115 108 63 15 20 295 250 214 217 202 194 191 188 185 188 187 187 189 189 188 186 183 185 181 170 159 148 146 158 161 149 160 201 235 192 169 153 143 132 122 117 83 60 54 81 96
127 88 57 52 66 40 310 69 286 233 213 210 204 198 191 189 190 192 193 190 193 193 190 184 183 188 182 174 165 158 158 164 160 164 177 222 275 183 173 162 158 157 157 165 173 147 22 358 295
122 96 30 5 20 295 277 258 258 246 220 197 197 198 193 190 190 193 195 194 196 195 194 188 184 188 183 176 173 171 170 171 175 183 188 193 190 179 184 169 175 182 191 197 197 209 263 276 269
181 135 155 196 200 277 318 264 264 264 233 194 189 192 192 192 193 197 201 199 197 195 193 188 186 186 182 179 180 177 170 167 172 180 177 181 189 195 191 183 190 200 204 210 202 209 239 235 252
122 180 163 128 112 95 281 288 299 287 207 180 184 186 193 195 197 201 203 200 195 192 190 188 184 182 182 181 176 177 176 173 175 178 175 180 192 189 182 188 197 210 214 218 213 223 239 242 248
144 145 82 103 140 182 262 265 250 249 223 197 193 195 199 198 200 203 202 199 196 191 187 181 179 180 179 177 179 184 185 183 180 178 186 191 196 186 182 196 204 214 221 222 218 228 237 238 248
26 53 94 128 153 152 209 256 225 212 216 209 208 204 201 200 200 201 202 198 189 180 174 174 176 172 174 179 181 177 183 185 183 188 200 201 205 203 201 205 208 215 223 224 220 230 235 236 246
180 167 138 136 235 163 175 258 249 203 209 205 211 213 207 203 200 199 194 183 175 174 173 175 177 176 180 180 176 179 182 182 186 198 208 207 210 210 209 208 211 219 222 220 217 228 231 227 234